TimeCST,TemperatureF,Dew PointF,Humidity,Sea Level PressureIn,VisibilityMPH,Wind Direction,Wind SpeedMPH,Gust SpeedMPH,PrecipitationIn,Events,Conditions,WindDirDegrees,DateUTC
12:52 AM,51.1,39.0,63,30.10,10.0,South,4.6,-,N/A,,Clear,190,2012-11-23 06:52:00
1:52 AM,51.1,39.9,66,30.09,10.0,SSW,4.6,-,N/A,,Mostly Cloudy,210,2012-11-23 07:52:00
2:52 AM,55.0,41.0,59,30.09,10.0,SW,5.8,-,N/A,,Overcast,230,2012-11-23 08:52:00
3:52 AM,55.9,42.1,60,30.08,10.0,SW,5.8,-,N/A,,Mostly Cloudy,220,2012-11-23 09:52:00
4:27 AM,57.2,42.8,59,30.08,10.0,WSW,5.8,-,N/A,,Overcast,250,2012-11-23 10:27:00
4:52 AM,57.0,46.9,69,30.08,9.0,WNW,13.8,-,0.00,Rain,Light Rain,290,2012-11-23 10:52:00
5:52 AM,54.0,50.0,86,30.10,10.0,West,9.2,-,0.01,,Overcast,280,2012-11-23 11:52:00
6:52 AM,54.0,48.9,83,30.12,10.0,NW,15.0,-,N/A,,Overcast,310,2012-11-23 12:52:00
7:52 AM,52.0,44.1,74,30.17,10.0,NW,17.3,24.2,N/A,,Overcast,310,2012-11-23 13:52:00
8:10 AM,51.8,41.0,67,30.17,10.0,NW,15.0,23.0,N/A,,Overcast,320,2012-11-23 14:10:00
8:52 AM,50.0,36.0,59,30.19,10.0,NNW,17.3,24.2,N/A,,Mostly Cloudy,340,2012-11-23 14:52:00
9:52 AM,53.1,37.9,57,30.19,10.0,NW,10.4,-,N/A,,Partly Cloudy,310,2012-11-23 15:52:00
10:52 AM,54.0,33.1,45,30.18,10.0,NNW,16.1,23.0,N/A,,Clear,330,2012-11-23 16:52:00
11:52 AM,55.9,33.1,42,30.17,10.0,NNW,18.4,-,N/A,,Clear,340,2012-11-23 17:52:00
12:52 PM,55.9,30.9,39,30.16,10.0,NNW,15.0,-,N/A,,Clear,340,2012-11-23 18:52:00
1:52 PM,55.0,30.9,40,30.15,10.0,NW,15.0,21.9,N/A,,Clear,320,2012-11-23 19:52:00
2:52 PM,55.0,30.9,40,30.16,10.0,NW,13.8,-,N/A,,Clear,310,2012-11-23 20:52:00
3:52 PM,51.1,34.0,52,30.18,10.0,NNW,19.6,25.3,N/A,,Clear,330,2012-11-23 21:52:00
4:52 PM,46.9,32.0,56,30.20,10.0,NNW,13.8,-,N/A,,Clear,330,2012-11-23 22:52:00
5:52 PM,45.0,30.0,56,30.23,10.0,NNW,17.3,-,N/A,,Clear,330,2012-11-23 23:52:00
6:52 PM,43.0,28.9,58,30.25,10.0,NNW,16.1,23.0,N/A,,Clear,330,2012-11-24 00:52:00
7:52 PM,39.9,28.9,65,30.26,10.0,NW,8.1,-,N/A,,Clear,320,2012-11-24 01:52:00
8:52 PM,39.0,26.1,60,30.27,10.0,NNW,11.5,-,N/A,,Clear,330,2012-11-24 02:52:00
9:52 PM,36.0,23.0,59,30.28,10.0,North,11.5,-,N/A,,Clear,350,2012-11-24 03:52:00
10:52 PM,34.0,21.9,61,30.30,10.0,NNW,10.4,-,N/A,,Clear,340,2012-11-24 04:52:00
11:52 PM,34.0,21.0,59,30.29,10.0,NNW,11.5,-,N/A,,Clear,330,2012-11-24 05:52:00